Flag for U.S.A. Weather past 2 weeks in Cape Coral, Florida, U.S.A.

Now
89 °F

Sunny.


Feels Like: 97 °F
Forecast: 76 / 90 °F
Wind: 18 mph from West

Location: Page Field

Current Time: Apr 26, 2015 at 6:56:26 PM

Latest Report: Apr 26, 2015 at 5:53 PM


Visibility: 10 mi

Pressure: 29.78 "Hg

Humidity: 59%

Dew point: 73 °F

Location of Cape CoralLocation

Historic Weather in Cape Coral — Graph

°F

Cape Coral temperature yesterday

Maximum temperature yesterday: 91 °F (at 1:53 PM)
Minimum temperature yesterday: 71 °F (at 6:53 AM)
Average temperature yesterday: 80 °F

Past Weeks' High & Low Weather Summary

 TemperatureHumidityPressure
High91 °F (Apr 25, 1:53 PM)100% (Apr 13, 6:53 AM)30.16 "Hg (Apr 13, 6:53 AM)
Low69 °F (Apr 12, 4:53 AM)41% (Apr 16, 1:53 PM)29.78 "Hg (Apr 26, 5:53 PM)
Average79 °F76%29.99 "Hg
* Reported Apr 11 5:53 PM — Apr 26 5:53 PM, Cape Coral, Weather by CustomWeather, © 2015

Note: Actual official high and low records may vary slightly from our data, if they occured in-between our weather recording intervals... More about our weather records

Advertising

Cape Coral weather history for previous 24 hours

 ConditionsComfort  
Time TempWeatherWind HumidityBarometerVisibility
5:53 PM
Sun, Apr 26
89 °FSunny.18 mph59%29.78 "Hg10 mi
4:53 PM89 °FSunny.16 mph59%29.78 "Hg10 mi
3:53 PM89 °FPassing clouds.15 mph61%29.79 "Hg9 mi
2:53 PM90 °FPassing clouds.15 mph59%29.81 "Hg10 mi
1:53 PM90 °FSunny.17 mph61%29.82 "Hg9 mi
12:53 PM89 °FPassing clouds.21 mph61%29.83 "Hg10 mi
11:53 AM90 °FSunny.13 mph59%29.84 "Hg10 mi
10:53 AM88 °FSunny.16 mph59%29.83 "Hg10 mi
9:53 AM86 °FSunny.13 mph65%29.82 "Hg10 mi
8:53 AM83 °FSunny.14 mph74%29.81 "Hg10 mi
7:53 AM80 °FSunny.12 mph81%29.80 "Hg9 mi
6:53 AM79 °FClear.9 mph84%29.80 "Hg10 mi
5:53 AM79 °FClear.10 mph88%29.80 "Hg10 mi
4:53 AM77 °FClear.5 mph90%29.80 "Hg9 mi
3:53 AM78 °FClear.6 mph87%29.82 "Hg10 mi
2:53 AM77 °FClear.5 mph90%29.84 "Hg10 mi
1:53 AM77 °FClear.5 mph90%29.86 "Hg10 mi
12:53 AM79 °FClear.6 mph84%29.89 "Hg10 mi
11:53 PM
Sat, Apr 25
78 °FClear.7 mph87%29.90 "Hg10 mi
10:53 PM78 °FClear.5 mph87%29.89 "Hg10 mi
9:53 PM80 °FClear.5 mph81%29.87 "Hg10 mi
8:53 PM80 °FSunny.7 mph81%29.86 "Hg10 mi
7:53 PM82 °FSunny.8 mph74%29.85 "Hg10 mi
6:53 PM84 °FSunny.9 mph70%29.85 "Hg10 mi
Weather by CustomWeather, © 2015

See weather overviewHow to use our weather pages